GFSMW_850_temp_105.txt.gz
Temp
18 18 19 19 19 19 20 20 20 20 21 19 20 19 19 20 19 18 17 17 16 16 16 15 14 13 13 13 13 12 11 12 11 11 11 11 10 10 10 10 10 10 11
17 18 18 19 19 19 20 20 20 20 20 21 21 20 20 20 20 18 17 17 16 16 15 15 14 13 13 13 12 12 11 11 11 11 10 10 10 10 10 10 10 10 10
12 15 17 18 19 19 19 20 19 20 20 20 20 20 18 18 18 17 17 17 16 15 14 14 13 13 12 12 12 12 11 12 11 11 10 10 10 10 10 10 10 10 10
10 11 12 15 16 18 19 19 20 20 19 19 20 20 20 19 19 18 18 17 17 15 14 13 13 12 12 12 12 12 11 12 12 10 11 10 11 10 9 10 9 10 10
5 5 7 9 13 16 17 19 20 21 20 20 19 20 19 19 20 18 18 17 17 15 14 13 12 12 12 12 12 12 12 12 11 11 11 10 10 10 10 9 9 10 9
4 4 4 6 9 13 16 19 20 21 21 20 19 19 20 19 18 18 18 18 17 15 13 13 12 12 12 12 12 12 11 11 11 11 11 11 10 10 10 11 10 10 10
3 2 2 4 8 11 15 17 19 17 17 19 20 19 17 18 18 19 18 17 17 15 13 13 12 12 12 12 11 11 11 11 11 11 10 10 10 10 11 10 10 9 9
4 0 1 2 5 9 10 13 14 13 13 14 14 16 17 17 17 18 17 18 17 15 13 13 12 12 12 11 11 11 11 11 10 10 10 10 10 10 9 10 10 9 9
4 -1 -1 1 5 7 9 10 11 13 13 13 14 14 16 17 18 18 17 16 15 13 13 12 12 11 11 11 11 11 10 10 10 10 10 9 10 10 9 9 11 11 8
0 -2 -2 1 3 6 8 9 10 11 13 13 14 14 17 17 17 17 16 15 14 13 13 12 11 11 11 10 10 10 10 10 10 10 10 10 10 10 9 9 10 11 11
-3 -4 -4 1 2 4 6 8 9 10 11 12 13 14 16 15 16 15 15 14 13 13 12 12 11 11 10 10 10 10 10 10 10 10 10 9 10 10 9 10 10 10 10
-4 -4 -3 -1 -1 2 5 6 8 10 10 12 14 14 15 15 14 14 14 13 12 12 12 11 10 10 9 9 9 10 10 10 10 10 10 10 10 9 10 9 9 9 10
-5 -5 -5 -3 -2 0 2 4 6 8 9 10 13 14 14 14 14 13 13 12 12 11 11 10 9 10 9 9 9 9 10 10 10 10 10 10 10 10 10 9 9 9 10
-6 -6 -5 -5 -3 -1 0 2 4 7 9 10 11 11 11 12 11 11 11 11 10 10 10 8 9 9 8 9 8 9 9 9 9 9 10 10 10 10 10 9 9 9 9
-6 -7 -7 -6 -4 -3 -1 1 3 5 7 7 9 10 10 10 10 9 10 10 10 9 9 8 9 9 8 8 9 8 9 9 9 10 10 10 10 10 10 10 9 9 9
-7 -7 -7 -6 -6 -4 -3 -1 1 2 3 4 5 8 9 10 10 9 9 9 9 10 9 8 8 8 8 8 8 8 9 9 9 9 9 10 9 9 9 9 9 9 9
-8 -7 -7 -7 -6 -5 -4 -3 -1 1 1 2 4 5 8 9 9 9 9 9 9 10 8 9 8 8 8 8 8 8 8 9 9 9 9 9 9 9 9 9 8 9 9
-7 -7 -7 -7 -6 -5 -4 -3 -2 -1 0 1 2 3 3 5 6 7 8 8 8 9 8 8 8 8 9 9 8 8 8 8 8 8 9 9 9 9 9 9 8 8 8
-7 -7 -7 -7 -6 -6 -5 -3 -2 -2 -1 -1 -1 1 1 2 2 3 3 4 4 7 7 7 8 8 8 8 8 8 8 8 8 8 7 7 7 8 8 8 8 8 8
-7 -6 -6 -6 -5 -6 -5 -4 -4 -3 -3 -3 -3 -2 -1 -0 1 1 0 -1 -0 1 2 5 5 7 8 8 8 7 7 7 7 8 7 7 7 8 8 7 7 7 7
-7 -6 -6 -6 -6 -6 -5 -5 -5 -5 -5 -3 -2 -2 -2 -2 -2 -1 -0 -1 -2 -3 -3 -0 2 3 3 6 5 4 5 6 6 6 6 7 7 7 7 7 7 6 6
-7 -7 -6 -6 -6 -5 -5 -5 -5 -6 -4 -3 -3 -3 -3 -3 -3 -3 -2 -2 -1 -2 -4 -5 -3 -2 -1 -0 1 2 3 2 3 3 3 2 3 3 3 4 3 2 2
-7 -7 -7 -7 -7 -6 -6 -6 -6 -5 -5 -4 -4 -4 -3 -3 -3 -3 -4 -4 -4 -4 -4 -6 -6 -5 -4 -4 -3 -1 -1 0 1 -1 -1 -1 -0 -0 -0 -1 -1 -1 -1
-7 -7 -6 -6 -7 -7 -7 -6 -6 -5 -5 -5 -5 -5 -4 -4 -4 -3 -4 -4 -5 -5 -5 -6 -6 -6 -6 -6 -5 -4 -4 -3 -3 -4 -3 -3 -3 -2 -3 -3 -3 -3 -3
-8 -8 -8 -8 -8 -7 -7 -7 -6 -6 -5 -5 -5 -6 -6 -6 -6 -5 -6 -6 -7 -7 -7 -7 -6 -6 -6 -7 -6 -5 -5 -5 -4 -4 -4 -4 -4 -4 -4 -4 -4 -5 -5
-8 -8 -8 -8 -8 -7 -7 -7 -7 -7 -6 -6 -6 -6 -6 -7 -7 -7 -7 -7 -7 -7 -8 -8 -7 -8 -8 -7 -7 -6 -6 -6 -6 -5 -5 -6 -6 -6 -7 -7 -8 -8 -8

GFSMW_850_temp_108.txt.gz
Temp
15 15 16 16 17 18 18 19 19 19 19 19 19 19 19 19 19 19 18 18 18 18 17 17 15 14 14 14 14 13 12 12 12 12 12 11 11 11 10 10 11 11 10
13 14 15 16 17 17 18 18 19 19 19 18 19 19 20 19 20 20 18 17 18 18 17 17 16 14 14 13 13 13 12 12 11 12 11 10 11 11 11 10 11 11 11
11 11 12 14 15 16 17 17 18 19 19 18 18 16 16 17 16 18 19 17 16 17 17 17 16 15 15 13 13 12 12 12 11 11 11 10 10 11 12 10 11 10 10
6 8 9 11 12 13 14 16 17 18 19 19 18 15 15 17 19 19 20 18 17 17 17 16 16 15 14 13 13 12 12 12 11 12 11 11 11 10 10 11 10 10 10
3 4 5 5 6 8 11 14 17 18 19 19 18 17 16 18 20 20 19 19 18 17 17 16 15 15 14 13 12 12 12 12 12 12 11 11 11 10 9 10 10 10 10
1 2 3 6 6 7 8 12 16 18 19 19 18 18 17 18 18 18 18 18 18 17 17 16 15 14 14 13 12 12 12 12 12 12 12 11 11 10 10 9 10 10 10
-1 -0 1 4 4 5 6 9 12 15 16 16 15 15 16 16 18 18 17 17 17 17 18 17 15 14 14 13 12 12 12 12 12 12 11 11 11 11 10 10 9 9 9
-2 -2 -0 -0 2 3 6 8 10 12 13 12 13 13 13 15 14 15 16 15 16 17 17 17 16 14 14 13 12 12 12 12 12 11 11 11 11 10 9 10 10 9 9
-4 -3 -2 -1 1 2 3 7 8 10 12 13 13 13 13 13 13 14 14 15 16 17 16 16 14 14 13 12 12 12 12 12 11 11 11 11 11 10 9 10 10 10 9
-4 -4 -3 -2 -0 -0 5 5 8 9 10 12 12 13 13 13 14 15 15 16 16 16 15 14 13 13 12 12 11 11 11 11 10 11 10 10 10 9 10 10 9 9 9
-5 -5 -4 -4 -2 -0 3 5 7 9 10 11 11 12 12 13 13 14 16 16 16 15 14 13 13 12 12 11 11 10 10 10 11 10 10 11 10 9 10 10 10 9 9
-6 -6 -5 -5 -3 -2 0 2 5 6 8 9 11 12 12 13 13 15 15 15 15 14 13 12 12 11 11 11 10 10 10 10 10 10 9 9 9 10 10 9 9 9 9
-6 -6 -6 -6 -5 -2 -0 2 4 5 7 9 10 11 12 12 12 13 14 14 14 13 12 11 11 11 10 9 9 9 9 9 10 10 9 10 10 9 10 10 10 10 9
-7 -7 -7 -6 -6 -4 -2 -0 2 3 6 7 9 10 10 10 12 13 13 13 11 11 10 10 10 9 9 8 9 9 8 8 9 9 9 9 10 9 10 9 10 9 9
-7 -7 -7 -7 -6 -5 -3 -1 0 2 3 5 8 9 10 10 10 10 10 9 9 9 9 9 8 8 8 8 8 8 9 9 9 9 9 9 9 10 9 10 10 9 9
-8 -8 -7 -7 -7 -6 -5 -2 -1 -0 1 3 3 4 5 8 10 9 9 9 8 8 8 8 8 8 8 8 8 8 9 9 9 9 9 9 10 10 10 10 10 10 9
-9 -8 -8 -8 -7 -6 -5 -4 -3 -1 0 0 2 3 4 3 6 8 8 8 8 8 8 8 7 7 8 8 8 8 8 8 8 8 9 9 9 9 9 9 9 9 9
-8 -8 -8 -7 -7 -6 -5 -4 -3 -2 -2 -0 1 1 2 2 3 4 6 7 7 7 6 6 7 7 7 8 8 8 8 8 8 8 9 9 9 9 9 9 9 9 8
-8 -7 -7 -7 -6 -5 -6 -5 -4 -3 -3 -3 -2 -2 -1 1 1 1 2 2 2 3 4 4 4 5 6 7 8 8 8 8 7 7 7 7 8 7 9 9 9 8 8
-7 -6 -6 -6 -5 -5 -5 -5 -5 -4 -4 -4 -4 -4 -2 -2 -1 -0 -0 -0 0 1 0 -1 -2 0 3 2 4 5 5 6 6 7 7 7 7 7 6 6 6 7 7
-7 -7 -6 -6 -6 -6 -6 -5 -5 -5 -5 -4 -3 -3 -3 -3 -3 -2 -2 -2 -1 -1 -1 1 -2 -3 -2 -1 0 1 3 4 3 5 5 6 6 7 7 7 7 7 7
-7 -7 -7 -7 -7 -6 -6 -6 -6 -6 -5 -4 -3 -3 -3 -3 -3 -3 -3 -3 -2 -2 -3 -4 -3 -3 -4 -3 -2 -2 -0 -0 1 1 1 1 1 3 3 4 5 6 5
-8 -7 -7 -7 -7 -7 -6 -6 -7 -6 -5 -5 -5 -5 -4 -4 -3 -3 -4 -4 -4 -4 -4 -4 -4 -5 -5 -4 -5 -4 -3 -3 -2 -3 -3 -3 -1 -0 0 -1 -1 -1 -1
-8 -8 -7 -7 -7 -7 -7 -7 -7 -6 -5 -5 -6 -6 -5 -5 -5 -5 -5 -5 -5 -5 -5 -5 -5 -5 -5 -5 -5 -5 -5 -5 -5 -5 -4 -4 -4 -3 -4 -3 -3 -3 -2
-8 -8 -8 -8 -8 -8 -7 -7 -7 -6 -6 -6 -7 -7 -7 -6 -6 -6 -7 -7 -8 -7 -7 -7 -6 -6 -6 -7 -6 -6 -6 -6 -5 -5 -5 -5 -5 -5 -5 -5 -5 -5 -5
-8 -8 -8 -8 -8 -8 -8 -8 -7 -7 -7 -7 -7 -7 -7 -7 -8 -8 -8 -8 -9 -8 -8 -8 -8 -8 -8 -7 -6 -6 -6 -7 -6 -5 -5 -6 -6 -6 -7 -7 -7 -7 -8

GFSMW_850_temp_114.txt.gz
Temp
12 10 10 9 9 9 10 12 15 14 14 14 14 15 14 14 15 15 16 18 18 18 16 15 16 18 18 16 15 14 13 13 13 13 12 12 13 13 11 11 11 11 12
8 7 7 7 6 6 7 7 9 11 11 12 14 15 15 14 15 15 15 15 16 18 18 18 18 18 18 15 15 15 13 13 13 13 12 12 12 12 11 11 11 12 12
6 5 5 5 4 4 5 5 7 8 11 10 10 14 14 14 14 14 14 14 17 19 19 19 18 18 17 17 14 15 15 13 13 12 12 12 13 14 12 11 11 11 12
5 4 3 3 3 3 2 4 6 9 9 8 9 11 15 15 14 13 13 18 18 18 19 19 18 18 17 17 16 14 15 13 13 12 12 13 14 13 13 11 12 12 11
4 3 2 1 1 2 1 2 4 7 8 5 6 8 11 14 15 14 13 15 19 18 17 19 18 18 18 17 16 14 14 15 13 14 12 12 12 12 12 13 12 12 12
2 1 1 0 0 0 0 4 4 5 7 7 6 7 9 13 15 15 14 13 15 18 18 18 17 17 18 17 17 15 14 15 14 13 12 12 12 11 11 11 11 12 11
0 -1 -1 -1 -2 -2 -0 3 4 4 5 6 6 8 8 10 14 15 15 14 13 12 15 17 17 16 17 17 16 16 14 14 14 12 12 12 12 12 11 11 11 11 11
-1 -2 -3 -3 -3 -4 -3 -1 1 2 4 5 6 7 10 10 13 14 15 14 13 13 13 14 17 16 17 17 17 16 16 14 14 13 13 12 12 12 12 11 12 11 10
-3 -3 -4 -4 -4 -5 -4 -2 -0 2 3 3 5 8 9 10 13 14 14 14 13 12 13 13 13 15 16 17 17 17 16 15 15 14 13 13 13 12 11 11 11 11 11
-4 -5 -5 -6 -6 -5 -4 -2 -1 -0 1 2 4 8 10 11 12 12 13 13 13 13 13 12 13 14 16 17 16 16 16 14 14 13 13 12 12 12 12 11 11 11 11
-5 -6 -6 -6 -6 -5 -5 -4 -1 -2 -0 2 4 8 10 11 12 12 12 13 13 13 13 12 12 12 13 14 16 16 15 14 13 12 12 12 12 12 11 11 11 10 10
-5 -6 -7 -7 -7 -6 -6 -4 -4 -3 -1 1 5 9 11 12 12 12 12 12 12 13 13 13 12 12 13 13 13 15 13 13 12 12 12 11 11 11 11 10 10 10 10
-5 -6 -7 -7 -7 -7 -6 -5 -6 -3 -1 1 4 8 11 11 11 11 11 11 12 12 11 12 12 12 12 12 13 13 12 11 11 11 10 10 10 10 10 10 10 10 10
-6 -7 -7 -8 -8 -7 -7 -6 -4 -2 -1 1 4 6 8 9 10 10 11 11 11 11 11 10 11 11 11 11 11 11 11 11 10 10 10 10 9 9 9 9 10 9 10
-7 -7 -8 -8 -8 -8 -6 -5 -4 -2 -0 -0 1 2 3 5 7 9 9 10 10 10 10 10 11 11 11 11 10 10 10 9 9 8 9 9 9 9 9 9 9 9 9
-7 -8 -8 -8 -8 -7 -7 -6 -4 -3 -2 -0 0 -0 1 2 2 4 6 8 9 9 9 9 9 9 9 9 9 9 9 9 8 8 8 9 8 9 9 9 9 9 9
-8 -9 -8 -8 -8 -7 -7 -6 -5 -3 -2 -2 -1 -1 -0 1 1 1 0 2 3 5 6 6 6 7 7 8 7 8 8 8 7 8 8 8 8 8 9 9 9 9 9
-9 -9 -9 -9 -8 -8 -7 -7 -5 -3 -3 -3 -3 -2 -1 -0 -0 1 0 0 -1 1 2 3 3 4 4 7 7 7 7 7 7 7 7 7 7 8 9 9 8 8 9
-10 -10 -10 -9 -8 -7 -7 -6 -4 -4 -3 -4 -3 -3 -2 -2 -2 -1 -1 -0 -0 0 0 1 1 2 0 1 2 3 5 4 5 5 6 6 7 8 8 8 8 7 7
-8 -8 -7 -6 -5 -6 -6 -5 -5 -5 -5 -4 -4 -3 -3 -4 -3 -3 -4 -3 -2 -2 -2 -1 -2 -2 -2 -1 1 1 1 1 1 1 2 3 4 5 6 6 6 5 5
-7 -7 -6 -6 -6 -6 -6 -6 -6 -6 -6 -5 -4 -4 -4 -4 -4 -4 -4 -4 -3 -2 -3 -4 -4 -3 -3 -2 -2 -1 -1 -0 -0 -0 -0 0 0 1 2 4 4 3 3
-8 -7 -7 -7 -6 -6 -5 -6 -6 -7 -5 -4 -4 -4 -4 -4 -4 -4 -4 -4 -3 -4 -4 -4 -5 -5 -5 -4 -4 -3 -3 -3 -2 -2 -2 -2 -3 -2 -1 0 0 -0 0
-8 -8 -8 -7 -7 -7 -7 -7 -7 -6 -5 -5 -5 -5 -5 -4 -4 -4 -4 -4 -4 -4 -5 -5 -6 -5 -4 -4 -5 -5 -5 -4 -4 -4 -4 -4 -4 -3 -2 -2 -2 -2 -1
-8 -8 -8 -8 -8 -8 -7 -7 -7 -6 -6 -6 -6 -6 -6 -6 -6 -6 -6 -6 -6 -6 -6 -6 -6 -6 -5 -4 -5 -5 -5 -5 -5 -5 -5 -4 -4 -4 -5 -4 -3 -3 -3
-9 -9 -9 -9 -8 -8 -8 -8 -7 -6 -6 -6 -6 -7 -7 -7 -10 -9 -9 -9 -9 -8 -9 -9 -11 -9 -8 -8 -8 -7 -6 -6 -6 -6 -5 -5 -5 -5 -6 -6 -6 -6 -6
-10 -10 -11 -11 -11 -10 -9 -11 -9 -9 -9 -10 -10 -8 -9 -9 -9 -10 -11 -9 -9 -9 -8 -8 -8 -9 -9 -8 -8 -7 -7 -7 -7 -6 -6 -7 -7 -8 -8 -8 -8 -7 -8

GFSMW_850_temp_117.txt.gz
Temp
14 12 11 10 9 9 9 10 10 10 11 12 14 15 16 15 15 15 15 15 15 15 15 15 15 16 17 17 14 14 14 14 14 14 13 13 13 13 13 13 13 13 12
12 10 9 8 8 7 7 7 7 8 9 10 12 14 16 16 16 15 15 15 15 15 15 15 15 15 16 16 14 13 14 14 14 13 13 13 13 13 13 13 13 12 12
10 9 8 7 6 6 6 5 5 6 6 7 8 10 12 15 16 15 15 15 15 15 15 15 16 15 16 17 14 13 14 13 14 14 13 13 15 16 14 13 12 12 12
8 7 6 6 5 5 5 4 4 4 4 5 6 8 10 14 16 16 14 15 15 15 15 15 15 15 16 16 18 16 15 14 14 13 14 14 16 17 16 14 13 12 12
6 5 4 3 3 3 3 2 2 2 3 4 4 5 7 10 12 14 15 15 15 15 15 15 15 14 14 17 18 16 14 13 13 13 13 13 14 14 15 15 13 12 12
5 3 2 2 1 1 1 0 0 1 1 2 2 3 5 7 9 12 15 15 14 14 15 14 14 14 14 14 16 17 15 13 12 13 12 12 13 14 14 13 14 13 13
3 1 0 -1 -1 -2 -2 -2 -2 -1 -1 0 1 4 5 6 7 9 13 14 14 14 14 13 14 14 14 16 16 16 15 12 13 13 13 12 13 13 14 13 13 14 14
0 -1 -2 -3 -3 -4 -4 -4 -4 -3 -3 1 3 5 6 5 6 8 13 14 15 14 14 14 13 14 13 15 16 15 15 14 14 13 13 12 13 13 13 13 13 13 13
-2 -3 -4 -4 -5 -5 -5 -5 -5 -4 -1 1 3 3 4 6 6 8 11 13 14 15 14 13 13 12 13 13 15 17 17 15 15 14 12 14 13 13 13 13 13 12 13
-3 -4 -5 -6 -6 -6 -6 -6 -5 -4 -2 -1 1 2 4 6 7 8 11 12 13 15 14 13 13 12 12 13 13 14 15 15 15 16 16 13 13 12 13 13 12 12 12
-3 -4 -5 -6 -6 -7 -6 -6 -5 -4 -2 -1 1 2 3 6 8 9 11 13 13 13 13 13 13 12 12 12 13 13 15 13 13 15 13 14 12 12 13 12 12 12 11
-3 -5 -6 -6 -7 -6 -6 -6 -5 -4 -3 -1 1 0 3 6 9 11 12 12 13 13 13 13 13 12 12 12 12 13 13 13 13 14 14 12 13 12 12 12 12 11 11
-4 -5 -6 -6 -6 -7 -6 -6 -5 -5 -3 -1 -2 -0 3 7 10 10 10 12 12 12 12 12 12 12 12 12 12 12 12 13 13 14 13 12 12 11 11 11 11 11 11
-5 -6 -6 -6 -6 -6 -6 -6 -5 -4 -4 -3 -4 -2 3 6 8 9 11 11 11 12 13 12 12 12 12 12 12 12 12 12 12 12 11 11 11 10 10 10 10 10 10
-6 -7 -7 -7 -7 -6 -6 -6 -6 -5 -4 -4 -2 -2 1 2 4 6 6 7 8 9 9 10 11 11 11 11 11 11 11 11 11 11 10 10 10 10 10 10 10 10 9
-7 -7 -7 -7 -7 -7 -6 -6 -6 -6 -5 -4 -3 -2 -1 1 1 1 1 3 4 5 6 7 9 9 10 9 9 10 10 10 10 10 9 9 9 9 9 9 8 9 9
-7 -8 -8 -8 -8 -7 -7 -6 -6 -5 -5 -5 -5 -3 -3 -1 -1 -0 0 0 0 1 2 2 4 6 8 7 8 8 8 8 8 8 8 8 8 8 8 8 8 8 9
-8 -9 -9 -9 -9 -8 -8 -7 -7 -4 -4 -4 -5 -4 -2 -3 -3 -3 -1 -1 -1 -1 -0 -1 -0 1 2 3 4 5 5 6 4 6 7 7 8 7 8 8 8 8 8
-10 -10 -10 -10 -8 -8 -7 -7 -6 -5 -5 -5 -4 -4 -4 -4 -4 -4 -5 -3 -3 -2 -2 -2 -2 -1 -1 1 1 2 2 1 1 2 3 3 4 5 5 5 6 6 5
-9 -8 -7 -7 -6 -6 -6 -4 -4 -4 -5 -6 -5 -5 -4 -3 -4 -4 -4 -4 -4 -4 -3 -3 -4 -3 -2 -0 -1 0 0 -0 0 -0 0 1 2 2 2 3 4 3 4
-7 -7 -7 -7 -7 -6 -6 -6 -5 -5 -6 -5 -4 -4 -4 -4 -3 -3 -2 -3 -3 -3 -4 -4 -3 -3 -4 -4 -3 -2 -2 -2 -2 -1 -1 -1 -1 -0 -0 0 0 1 1
-8 -7 -7 -7 -7 -6 -6 -6 -6 -7 -5 -5 -4 -4 -4 -4 -4 -3 -3 -3 -2 -2 -3 -4 -5 -5 -4 -4 -3 -4 -4 -3 -3 -3 -4 -4 -3 -3 -2 -2 -2 -2 -2
-9 -8 -7 -7 -7 -7 -7 -7 -7 -7 -6 -5 -5 -5 -5 -5 -4 -4 -4 -4 -4 -4 -5 -4 -5 -5 -4 -4 -5 -5 -5 -5 -5 -6 -5 -5 -4 -4 -4 -3 -3 -3 -3
-9 -10 -9 -8 -7 -8 -8 -8 -7 -7 -7 -7 -8 -8 -7 -8 -6 -6 -6 -5 -5 -5 -6 -7 -7 -6 -6 -5 -5 -5 -5 -5 -5 -6 -6 -6 -6 -5 -5 -4 -5 -5 -6
-9 -9 -9 -10 -10 -9 -9 -8 -8 -8 -10 -10 -9 -10 -10 -10 -11 -10 -10 -10 -10 -9 -9 -9 -9 -7 -7 -8 -8 -7 -7 -7 -7 -7 -7 -6 -6 -6 -6 -7 -7 -7 -7
-8 -8 -9 -9 -10 -10 -10 -10 -9 -10 -10 -10 -10 -10 -10 -10 -11 -11 -11 -12 -12 -11 -10 -10 -10 -11 -10 -9 -8 -8 -8 -8 -8 -9 -10 -11 -11 -11 -11 -11 -10 -9 -9